DAL740 KJFK-KSEA

Flight info

Callsign DAL740
Flight time 5h 25m
Altitude 36000
Route DCT COATE Q436 RAAKK Q440 HUFFR DCT KP06C DCT KU12U/N0454F340 DCT MLP GLASR3
Aircraft A21N/M-V/N

Departure

Time 2026-05-07 21:06
Airport John F. Kennedy International Airport (KJFK)

Arrival

Time 2026-05-08 02:31
Airport Seattle–Tacoma International Airport (KSEA)
Time Latitude Longitude Altitude Speed Heading
2026-05-07 21:04 40.62889 -73.77132 29 ft 0 kts 209°
2026-05-07 21:04 40.62881 -73.77139 29 ft 8 kts 209°
2026-05-07 21:04 40.62830 -73.77184 29 ft 9 kts 233°
2026-05-07 21:05 40.62840 -73.77268 29 ft 11 kts 300°
2026-05-07 21:05 40.62957 -73.77525 33 ft 65 kts 301°
2026-05-07 21:05 40.63300 -73.78281 28 ft 128 kts 301°
2026-05-07 21:05 40.63851 -73.79491 34 ft 175 kts 299°
2026-05-07 21:06 40.64459 -73.80836 593 ft 168 kts 304°
2026-05-07 21:06 40.65099 -73.82118 1272 ft 167 kts 301°
2026-05-07 21:06 40.65310 -73.83581 1826 ft 173 kts 260°
2026-05-07 21:06 40.64619 -73.85041 1884 ft 210 kts 229°
2026-05-07 21:07 40.63474 -73.86439 2013 ft 241 kts 219°
2026-05-07 21:07 40.62230 -73.88001 2420 ft 253 kts 239°
2026-05-07 21:07 40.61559 -73.90104 3132 ft 254 kts 255°
2026-05-07 21:07 40.61083 -73.92389 3914 ft 257 kts 257°
2026-05-07 21:08 40.60629 -73.94641 4681 ft 259 kts 257°
2026-05-07 21:08 40.60159 -73.96944 5409 ft 261 kts 257°
2026-05-07 21:08 40.59679 -73.99293 6132 ft 264 kts 257°
2026-05-07 21:08 40.59209 -74.01603 6832 ft 265 kts 257°
2026-05-07 21:09 40.58802 -74.03960 7570 ft 264 kts 266°
2026-05-07 21:09 40.59054 -74.06336 8333 ft 260 kts 291°
2026-05-07 21:09 40.60066 -74.08250 9138 ft 262 kts 314°
2026-05-07 21:09 40.61540 -74.09687 9845 ft 266 kts 321°
2026-05-07 21:10 40.63124 -74.11013 10296 ft 275 kts 317°
2026-05-07 21:10 40.64635 -74.12635 10510 ft 288 kts 313°
2026-05-07 21:10 40.66182 -74.14439 10721 ft 305 kts 312°
2026-05-07 21:10 40.67813 -74.16344 10930 ft 322 kts 313°
2026-05-07 21:11 40.69533 -74.18337 11135 ft 337 kts 313°
2026-05-07 21:11 40.71323 -74.20398 11556 ft 344 kts 313°
2026-05-07 21:11 40.74966 -74.24596 12694 ft 351 kts 311°
2026-05-07 21:12 40.76812 -74.26720 13263 ft 354 kts 311°
2026-05-07 21:12 40.78669 -74.28862 13829 ft 357 kts 310°
2026-05-07 21:12 40.80542 -74.31032 14314 ft 360 kts 310°
2026-05-07 21:12 40.82436 -74.33223 14792 ft 363 kts 310°
2026-05-07 21:13 40.84337 -74.35430 15263 ft 366 kts 310°
2026-05-07 21:13 40.86257 -74.37659 15773 ft 369 kts 310°
2026-05-07 21:13 40.88193 -74.39902 16261 ft 372 kts 310°
2026-05-07 21:13 40.90141 -74.42165 16749 ft 374 kts 310°
2026-05-07 21:14 40.92105 -74.44445 17241 ft 377 kts 310°
2026-05-07 21:14 40.94084 -74.46741 17740 ft 380 kts 309°
2026-05-07 21:14 40.96078 -74.49064 18200 ft 384 kts 309°
2026-05-07 21:14 40.98089 -74.51405 18623 ft 386 kts 309°
2026-05-07 21:15 41.00105 -74.53756 19072 ft 388 kts 309°
2026-05-07 21:15 41.02135 -74.56128 19491 ft 390 kts 309°
2026-05-07 21:15 41.04170 -74.58512 19920 ft 392 kts 309°
2026-05-07 21:15 41.06215 -74.60904 20358 ft 394 kts 309°
2026-05-07 21:16 41.08277 -74.63315 20782 ft 395 kts 309°
2026-05-07 21:16 41.10340 -74.65730 21198 ft 397 kts 309°
2026-05-07 21:16 41.12401 -74.68179 21604 ft 397 kts 307°
2026-05-07 21:16 41.14182 -74.70902 21988 ft 386 kts 296°
2026-05-07 21:17 41.15582 -74.73918 22379 ft 383 kts 292°
2026-05-07 21:17 41.16903 -74.77000 22766 ft 385 kts 291°
2026-05-07 21:17 41.18211 -74.80059 23143 ft 387 kts 292°
2026-05-07 21:17 41.19548 -74.83162 23565 ft 388 kts 292°
2026-05-07 21:18 41.20898 -74.86278 23898 ft 390 kts 292°
2026-05-07 21:18 41.22249 -74.89398 24223 ft 391 kts 292°
2026-05-07 21:18 41.23610 -74.92538 24535 ft 393 kts 292°
2026-05-07 21:18 41.24976 -74.95683 24833 ft 394 kts 292°
2026-05-07 21:19 41.26350 -74.98848 25137 ft 396 kts 292°
2026-05-07 21:19 41.27730 -75.02030 25441 ft 398 kts 292°
2026-05-07 21:19 41.29109 -75.05224 25739 ft 400 kts 292°
2026-05-07 21:19 41.30496 -75.08438 26071 ft 401 kts 292°
2026-05-07 21:20 41.31886 -75.11666 26366 ft 403 kts 292°
2026-05-07 21:20 41.33282 -75.14907 26641 ft 405 kts 292°
2026-05-07 21:20 41.34680 -75.18157 26911 ft 406 kts 292°
2026-05-07 21:20 41.36089 -75.21436 27173 ft 408 kts 292°
2026-05-07 21:21 41.37492 -75.24711 27439 ft 409 kts 292°
2026-05-07 21:21 41.38905 -75.28019 27695 ft 411 kts 292°
2026-05-07 21:21 41.40316 -75.31326 27925 ft 412 kts 292°
2026-05-07 21:21 41.41737 -75.34663 28161 ft 414 kts 292°
2026-05-07 21:22 41.43156 -75.37992 28400 ft 414 kts 292°
2026-05-07 21:22 41.44582 -75.41334 28673 ft 414 kts 292°
2026-05-07 21:22 41.46004 -75.44665 28978 ft 413 kts 292°
2026-05-07 21:22 41.47386 -75.48013 29246 ft 410 kts 289°
2026-05-07 21:23 41.48516 -75.51473 29502 ft 406 kts 285°
2026-05-07 21:23 41.49523 -75.54976 29817 ft 404 kts 284°
2026-05-07 21:23 41.50514 -75.58482 30071 ft 403 kts 284°
2026-05-07 21:23 41.51504 -75.61973 30269 ft 402 kts 284°
2026-05-07 21:24 41.52498 -75.65453 30481 ft 401 kts 284°
2026-05-07 21:24 41.53494 -75.68926 30681 ft 401 kts 284°
2026-05-07 21:24 41.54487 -75.72392 30881 ft 400 kts 284°
2026-05-07 21:24 41.55475 -75.75856 31080 ft 399 kts 284°
2026-05-07 21:25 41.56462 -75.79312 31281 ft 398 kts 284°
2026-05-07 21:25 41.57445 -75.82756 31480 ft 397 kts 284°
2026-05-07 21:25 41.58425 -75.86197 31665 ft 396 kts 284°
2026-05-07 21:25 41.59403 -75.89639 31830 ft 395 kts 284°
2026-05-07 21:26 41.60379 -75.93061 31990 ft 395 kts 284°
2026-05-07 21:26 41.61353 -75.96485 32152 ft 394 kts 284°
2026-05-07 21:26 41.62323 -75.99912 32311 ft 394 kts 284°
2026-05-07 21:26 41.63289 -76.03329 32451 ft 393 kts 284°
2026-05-07 21:27 41.64254 -76.06753 32605 ft 393 kts 284°
2026-05-07 21:27 41.65218 -76.10175 32730 ft 393 kts 284°
2026-05-07 21:27 41.66180 -76.13588 32887 ft 392 kts 284°
2026-05-07 21:27 41.67126 -76.16955 33056 ft 391 kts 284°
2026-05-07 21:28 41.68093 -76.20401 33195 ft 391 kts 283°
2026-05-07 21:28 41.69045 -76.23804 33328 ft 390 kts 283°
2026-05-07 21:28 41.69981 -76.27154 33431 ft 390 kts 283°
2026-05-07 21:28 41.70943 -76.30590 33544 ft 389 kts 283°
2026-05-07 21:29 41.71891 -76.33980 33652 ft 389 kts 283°
2026-05-07 21:29 41.72822 -76.37326 33760 ft 389 kts 283°
2026-05-07 21:29 41.74707 -76.44101 33918 ft 388 kts 283°
2026-05-07 21:30 41.76601 -76.50915 34083 ft 388 kts 283°
2026-05-07 21:30 41.78476 -76.57686 34218 ft 387 kts 283°
2026-05-07 21:31 41.80333 -76.64399 34334 ft 387 kts 283°
2026-05-07 21:31 41.82196 -76.71167 34449 ft 387 kts 283°
2026-05-07 21:32 41.84059 -76.77936 34554 ft 387 kts 283°
2026-05-07 21:32 41.85910 -76.84714 34676 ft 387 kts 283°
2026-05-07 21:33 41.87766 -76.91502 34784 ft 388 kts 284°
2026-05-07 21:33 41.89619 -76.98308 34866 ft 388 kts 283°
2026-05-07 21:34 41.91465 -77.05122 34950 ft 388 kts 283°
2026-05-07 21:34 41.93303 -77.11931 35025 ft 388 kts 283°
2026-05-07 21:35 41.95144 -77.18756 35082 ft 388 kts 283°
2026-05-07 21:35 41.96972 -77.25584 35160 ft 388 kts 283°
2026-05-07 21:36 41.98496 -77.31248 35199 ft 387 kts 283°
2026-05-07 21:36 42.00312 -77.38047 35254 ft 387 kts 283°
2026-05-07 21:37 42.02134 -77.44845 35297 ft 386 kts 284°
2026-05-07 21:37 42.03994 -77.51639 35332 ft 387 kts 284°
2026-05-07 21:38 42.05843 -77.58431 35364 ft 387 kts 284°
2026-05-07 21:38 42.07686 -77.65233 35393 ft 387 kts 284°
2026-05-07 21:39 42.09523 -77.72042 35409 ft 387 kts 284°
2026-05-07 21:39 42.11357 -77.78860 35409 ft 387 kts 284°
2026-05-07 21:40 42.13186 -77.85688 35377 ft 387 kts 283°
2026-05-07 21:40 42.15014 -77.92507 35382 ft 387 kts 284°
2026-05-07 21:41 42.16837 -77.99327 35435 ft 387 kts 284°
2026-05-07 21:41 42.18654 -78.06154 35465 ft 387 kts 284°
2026-05-07 21:42 42.20476 -78.12986 35494 ft 387 kts 284°
2026-05-07 21:42 42.22286 -78.19820 35510 ft 387 kts 283°
2026-05-07 21:43 42.24082 -78.26606 35541 ft 387 kts 283°
2026-05-07 21:43 42.25812 -78.33457 35572 ft 385 kts 282°
2026-05-07 21:44 42.27485 -78.40335 35595 ft 385 kts 282°
2026-05-07 21:44 42.29176 -78.47209 35627 ft 386 kts 283°
2026-05-07 21:45 42.30890 -78.54124 35653 ft 385 kts 283°
2026-05-07 21:45 42.32576 -78.60941 35711 ft 385 kts 283°
2026-05-07 21:46 42.34262 -78.67811 35756 ft 385 kts 283°
2026-05-07 21:46 42.35951 -78.74679 35787 ft 385 kts 283°
2026-05-07 21:47 42.37636 -78.81557 35804 ft 386 kts 283°
2026-05-07 21:47 42.39297 -78.88447 35832 ft 385 kts 282°
2026-05-07 21:48 42.40964 -78.95324 35841 ft 385 kts 283°
2026-05-07 21:48 42.42680 -79.02189 35846 ft 385 kts 283°
2026-05-07 21:49 42.44365 -79.09067 35866 ft 385 kts 283°
2026-05-07 21:49 42.46045 -79.15962 35871 ft 386 kts 283°
2026-05-07 21:50 42.47727 -79.22850 35899 ft 385 kts 283°
2026-05-07 21:50 42.49403 -79.29744 35919 ft 385 kts 283°
2026-05-07 21:51 42.51063 -79.36653 35919 ft 385 kts 283°
2026-05-07 21:51 42.52731 -79.43557 35944 ft 386 kts 283°
2026-05-07 21:52 42.54393 -79.50479 35950 ft 387 kts 283°
2026-05-07 21:52 42.56054 -79.57428 35940 ft 387 kts 283°
2026-05-07 21:53 42.57714 -79.64384 35945 ft 388 kts 283°
2026-05-07 21:53 42.59369 -79.71351 35952 ft 388 kts 283°
2026-05-07 21:54 42.60951 -79.78354 35953 ft 386 kts 278°
2026-05-07 21:54 42.61495 -79.85494 35963 ft 383 kts 271°
2026-05-07 21:55 42.61774 -79.92756 35961 ft 383 kts 271°
2026-05-07 21:55 42.62083 -79.99990 35957 ft 384 kts 271°
2026-05-07 21:56 42.62392 -80.07184 35953 ft 385 kts 271°
2026-05-07 21:56 42.62697 -80.14431 35950 ft 385 kts 271°
2026-05-07 21:57 42.63009 -80.21695 35958 ft 386 kts 271°
2026-05-07 21:57 42.63309 -80.28980 35958 ft 386 kts 271°
2026-05-07 21:58 42.63605 -80.36270 35946 ft 387 kts 271°
2026-05-07 21:58 42.63901 -80.43575 35952 ft 388 kts 271°
2026-05-07 21:59 42.64191 -80.50903 35954 ft 389 kts 271°
2026-05-07 21:59 42.64449 -80.58238 35961 ft 390 kts 271°
2026-05-07 22:00 42.64701 -80.65609 35946 ft 391 kts 271°
2026-05-07 22:00 42.64954 -80.72995 35953 ft 391 kts 271°
2026-05-07 22:01 42.65197 -80.80370 35942 ft 391 kts 271°
2026-05-07 22:01 42.65445 -80.87729 35938 ft 390 kts 271°
2026-05-07 22:02 42.65673 -80.95075 35950 ft 389 kts 271°
2026-05-07 22:02 42.65897 -81.02412 35947 ft 389 kts 271°
2026-05-07 22:03 42.66122 -81.09746 35945 ft 389 kts 271°
2026-05-07 22:03 42.66340 -81.17088 35945 ft 389 kts 271°
2026-05-07 22:04 42.66555 -81.24417 35950 ft 388 kts 271°
2026-05-07 22:04 42.67183 -81.31722 35949 ft 390 kts 276°
2026-05-07 22:05 42.68044 -81.38990 35931 ft 390 kts 276°
2026-05-07 22:05 42.68891 -81.46256 35938 ft 389 kts 276°
2026-05-07 22:06 42.69728 -81.53526 35938 ft 389 kts 276°
2026-05-07 22:06 42.70560 -81.60795 35933 ft 389 kts 276°
2026-05-07 22:07 42.71379 -81.68010 35948 ft 389 kts 276°
2026-05-07 22:07 42.72190 -81.75277 35946 ft 389 kts 276°
2026-05-07 22:08 42.73010 -81.82549 35951 ft 390 kts 276°
2026-05-07 22:08 42.73818 -81.89843 35951 ft 391 kts 276°
2026-05-07 22:09 42.74637 -81.97161 35945 ft 392 kts 276°
2026-05-07 22:09 42.75452 -82.04497 35947 ft 392 kts 276°
2026-05-07 22:10 42.76254 -82.11850 35948 ft 393 kts 276°
2026-05-07 22:10 42.77059 -82.19216 35947 ft 394 kts 276°
2026-05-07 22:11 42.77849 -82.26606 35944 ft 395 kts 276°
2026-05-07 22:11 42.78643 -82.33998 35944 ft 395 kts 276°
2026-05-07 22:12 42.79439 -82.41405 35949 ft 396 kts 276°
2026-05-07 22:12 42.80240 -82.48818 35943 ft 396 kts 276°
2026-05-07 22:13 42.81065 -82.56226 35924 ft 396 kts 278°
2026-05-07 22:13 42.82068 -82.63604 35918 ft 396 kts 278°
2026-05-07 22:14 42.83071 -82.70995 35917 ft 396 kts 278°
2026-05-07 22:14 42.84075 -82.78381 35914 ft 397 kts 278°
2026-05-07 22:15 42.85077 -82.85788 35912 ft 398 kts 278°
2026-05-07 22:15 42.86065 -82.93203 35910 ft 398 kts 278°
2026-05-07 22:16 42.87062 -83.00616 35913 ft 398 kts 278°
2026-05-07 22:16 42.88052 -83.08045 35928 ft 399 kts 278°
2026-05-07 22:17 42.89031 -83.15452 35935 ft 399 kts 278°
2026-05-07 22:17 42.90007 -83.22962 35941 ft 400 kts 278°
2026-05-07 22:18 42.92212 -83.33934 35943 ft 404 kts 291°
2026-05-07 22:19 42.94587 -83.40843 35947 ft 405 kts 291°
2026-05-07 22:19 42.96971 -83.47810 35938 ft 405 kts 291°
2026-05-07 22:20 42.99332 -83.54794 35932 ft 405 kts 291°
2026-05-07 22:20 43.01684 -83.61806 35931 ft 406 kts 291°
2026-05-07 22:21 43.04036 -83.68822 35929 ft 406 kts 291°
2026-05-07 22:21 43.06385 -83.75853 35963 ft 407 kts 291°
2026-05-07 22:22 43.08746 -83.82903 35938 ft 408 kts 291°
2026-05-07 22:22 43.11085 -83.89986 35940 ft 408 kts 291°
2026-05-07 22:23 43.13429 -83.97076 35942 ft 409 kts 291°
2026-05-07 22:23 43.15385 -84.02974 35940 ft 410 kts 291°
2026-05-07 22:24 43.17738 -84.10088 35937 ft 410 kts 291°
2026-05-07 22:24 43.20077 -84.17218 35941 ft 410 kts 291°
2026-05-07 22:25 43.22420 -84.24359 35945 ft 411 kts 291°
2026-05-07 22:25 43.24772 -84.31504 35940 ft 411 kts 291°
2026-05-07 22:26 43.27112 -84.38635 35940 ft 410 kts 291°
2026-05-07 22:26 43.29451 -84.45778 35936 ft 410 kts 291°
2026-05-07 22:27 43.31787 -84.52939 35944 ft 411 kts 291°
2026-05-07 22:27 43.34118 -84.60123 35931 ft 412 kts 291°
2026-05-07 22:28 43.36455 -84.67322 35927 ft 413 kts 291°
2026-05-07 22:28 43.38764 -84.74494 35929 ft 413 kts 291°
2026-05-07 22:29 43.41103 -84.81762 35935 ft 413 kts 291°
2026-05-07 22:29 43.43426 -84.88990 35938 ft 413 kts 291°
2026-05-07 22:30 43.45746 -84.96221 35941 ft 413 kts 291°
2026-05-07 22:30 43.48083 -85.03388 35949 ft 413 kts 292°
2026-05-07 22:31 43.50427 -85.10579 35952 ft 410 kts 291°
2026-05-07 22:31 43.52736 -85.17777 35953 ft 411 kts 291°
2026-05-07 22:32 43.55058 -85.24998 35961 ft 413 kts 292°
2026-05-07 22:32 43.57395 -85.32235 35958 ft 414 kts 292°
2026-05-07 22:33 43.59729 -85.39498 35946 ft 414 kts 291°
2026-05-07 22:33 43.62052 -85.46778 35939 ft 415 kts 292°
2026-05-07 22:34 43.64383 -85.54054 35939 ft 415 kts 292°
2026-05-07 22:34 43.66719 -85.61346 35943 ft 415 kts 292°
2026-05-07 22:35 43.69053 -85.68642 35942 ft 415 kts 292°
2026-05-07 22:35 43.71377 -85.75957 35946 ft 416 kts 292°
2026-05-07 22:36 43.73728 -85.83258 35952 ft 416 kts 292°
2026-05-07 22:36 43.76112 -85.90536 35970 ft 416 kts 292°
2026-05-07 22:37 43.78488 -85.97841 35956 ft 417 kts 292°
2026-05-07 22:37 43.80856 -86.05161 35954 ft 417 kts 292°
2026-05-07 22:38 43.83226 -86.12496 35956 ft 417 kts 292°
2026-05-07 22:38 43.85590 -86.19830 35948 ft 417 kts 292°
2026-05-07 22:39 43.87945 -86.27168 35942 ft 417 kts 292°
2026-05-07 22:39 43.90294 -86.34516 35940 ft 417 kts 292°
2026-05-07 22:40 43.92642 -86.41861 35940 ft 417 kts 292°
2026-05-07 22:40 43.94965 -86.49171 35940 ft 417 kts 292°
2026-05-07 22:41 43.97315 -86.56576 35941 ft 417 kts 292°
2026-05-07 22:41 43.99635 -86.63902 35948 ft 414 kts 292°
2026-05-07 22:42 44.01952 -86.71241 35942 ft 415 kts 292°
2026-05-07 22:42 44.04246 -86.78602 35939 ft 415 kts 292°
2026-05-07 22:43 44.06543 -86.85911 35930 ft 415 kts 292°
2026-05-07 22:43 44.08866 -86.93263 35929 ft 415 kts 292°
2026-05-07 22:44 44.11171 -87.00624 35919 ft 415 kts 292°
2026-05-07 22:44 44.13478 -87.08034 35920 ft 414 kts 292°
2026-05-07 22:45 44.15757 -87.15349 35924 ft 414 kts 292°
2026-05-07 22:45 44.18035 -87.22712 35926 ft 414 kts 292°
2026-05-07 22:46 44.20311 -87.30090 35930 ft 415 kts 292°
2026-05-07 22:46 44.22588 -87.37500 35912 ft 416 kts 292°
2026-05-07 22:47 44.24869 -87.44919 35920 ft 417 kts 292°
2026-05-07 22:47 44.27140 -87.52355 35922 ft 417 kts 292°
2026-05-07 22:48 44.29415 -87.59816 35921 ft 418 kts 292°
2026-05-07 22:48 44.31688 -87.67296 35923 ft 419 kts 292°
2026-05-07 22:49 44.33962 -87.74768 35909 ft 418 kts 292°
2026-05-07 22:49 44.36207 -87.82258 35915 ft 417 kts 292°
2026-05-07 22:50 44.38465 -87.89721 35913 ft 417 kts 292°
2026-05-07 22:50 44.40721 -87.97187 35939 ft 417 kts 292°
2026-05-07 22:51 44.42966 -88.04688 35916 ft 418 kts 292°
2026-05-07 22:51 44.45209 -88.12202 35900 ft 418 kts 292°
2026-05-07 22:52 44.47454 -88.19716 35900 ft 419 kts 292°
2026-05-07 22:52 44.49691 -88.27235 35900 ft 419 kts 292°
2026-05-07 22:53 44.51283 -88.35063 35906 ft 419 kts 282°
2026-05-07 22:53 44.52434 -88.43067 35908 ft 419 kts 282°
2026-05-07 22:54 44.53594 -88.51065 35903 ft 419 kts 282°
2026-05-07 22:54 44.54750 -88.59011 35909 ft 418 kts 282°
2026-05-07 22:55 44.55908 -88.67001 35909 ft 418 kts 282°
2026-05-07 22:55 44.57066 -88.75054 35912 ft 418 kts 282°
2026-05-07 22:56 44.58201 -88.83001 35910 ft 418 kts 282°
2026-05-07 22:56 44.59339 -88.91008 35906 ft 418 kts 282°
2026-05-07 22:57 44.60476 -88.99000 35912 ft 418 kts 282°
2026-05-07 22:57 44.61592 -89.06988 35928 ft 417 kts 282°
2026-05-07 22:58 44.62709 -89.14992 35914 ft 418 kts 282°
2026-05-07 22:58 44.63823 -89.23000 35912 ft 418 kts 282°
2026-05-07 22:59 44.64948 -89.31008 35903 ft 418 kts 282°
2026-05-07 22:59 44.66053 -89.39016 35905 ft 418 kts 282°
2026-05-07 23:00 44.67155 -89.47046 35905 ft 418 kts 282°
2026-05-07 23:00 44.68249 -89.55036 35894 ft 417 kts 282°
2026-05-07 23:01 44.69333 -89.63051 35893 ft 418 kts 282°
2026-05-07 23:01 44.70403 -89.71071 35890 ft 418 kts 282°
2026-05-07 23:02 44.71479 -89.79109 35891 ft 418 kts 282°
2026-05-07 23:02 44.72555 -89.87091 35898 ft 418 kts 282°
2026-05-07 23:03 44.73629 -89.95139 35903 ft 418 kts 282°
2026-05-07 23:03 44.74690 -90.03172 35890 ft 415 kts 282°
2026-05-07 23:04 44.75738 -90.11164 35892 ft 416 kts 282°
2026-05-07 23:04 44.76782 -90.19175 35894 ft 416 kts 282°
2026-05-07 23:05 44.77821 -90.27192 35897 ft 417 kts 282°
2026-05-07 23:05 44.78856 -90.35220 35900 ft 417 kts 282°
2026-05-07 23:06 44.79887 -90.43246 35894 ft 415 kts 282°
2026-05-07 23:06 44.80903 -90.51223 35914 ft 414 kts 282°
2026-05-07 23:07 44.81916 -90.59210 35914 ft 415 kts 282°
2026-05-07 23:07 44.82922 -90.67208 35918 ft 415 kts 282°
2026-05-07 23:08 44.83919 -90.75211 35917 ft 415 kts 282°
2026-05-07 23:08 44.84916 -90.83204 35913 ft 412 kts 282°
2026-05-07 23:09 44.85900 -90.91158 35914 ft 413 kts 282°
2026-05-07 23:09 44.86882 -90.99141 35914 ft 414 kts 282°
2026-05-07 23:10 44.87861 -91.07129 35911 ft 414 kts 282°
2026-05-07 23:10 44.88670 -91.13764 35905 ft 413 kts 282°
2026-05-07 23:11 44.89631 -91.21736 35895 ft 412 kts 282°
2026-05-07 23:11 44.90585 -91.29664 35899 ft 410 kts 282°
2026-05-07 23:12 44.91531 -91.37598 35902 ft 411 kts 282°
2026-05-07 23:12 44.92476 -91.45545 35900 ft 411 kts 282°
2026-05-07 23:13 44.93417 -91.53484 35889 ft 410 kts 282°
2026-05-07 23:13 44.94343 -91.61404 35900 ft 408 kts 282°
2026-05-07 23:14 44.95265 -91.69320 35907 ft 409 kts 282°
2026-05-07 23:14 44.96181 -91.77253 35909 ft 409 kts 282°
2026-05-07 23:15 44.97093 -91.85175 35908 ft 409 kts 282°
2026-05-07 23:15 44.97998 -91.93106 35895 ft 408 kts 282°
2026-05-07 23:16 44.98901 -92.01011 35910 ft 408 kts 282°
2026-05-07 23:16 44.99797 -92.08933 35904 ft 408 kts 282°
2026-05-07 23:17 45.00682 -92.16860 35914 ft 409 kts 282°
2026-05-07 23:17 45.01563 -92.24782 35908 ft 408 kts 282°
2026-05-07 23:18 45.02437 -92.32664 35886 ft 408 kts 282°
2026-05-07 23:18 45.03309 -92.40575 35899 ft 404 kts 282°
2026-05-07 23:19 45.04163 -92.48386 35899 ft 405 kts 282°
2026-05-07 23:19 45.05018 -92.56259 35900 ft 406 kts 282°
2026-05-07 23:20 45.05869 -92.64148 35900 ft 406 kts 282°
2026-05-07 23:20 45.06715 -92.72035 35887 ft 405 kts 282°
2026-05-07 23:21 45.07547 -92.79870 35900 ft 402 kts 282°
2026-05-07 23:21 45.08371 -92.87689 35900 ft 403 kts 282°
2026-05-07 23:22 45.09196 -92.95541 35899 ft 403 kts 282°
2026-05-07 23:22 45.10011 -93.03361 35892 ft 402 kts 282°
2026-05-07 23:23 45.10819 -93.11183 35868 ft 402 kts 282°
2026-05-07 23:23 45.11629 -93.19029 35886 ft 403 kts 282°
2026-05-07 23:24 45.12428 -93.26851 35888 ft 400 kts 282°
2026-05-07 23:24 45.13222 -93.34677 35881 ft 402 kts 282°
2026-05-07 23:25 45.14011 -93.42530 35882 ft 402 kts 282°
2026-05-07 23:25 45.14929 -93.50320 35885 ft 400 kts 288°
2026-05-07 23:26 45.16501 -93.57873 35890 ft 400 kts 290°
2026-05-07 23:26 45.18101 -93.65409 35896 ft 398 kts 289°
2026-05-07 23:27 45.20478 -93.76712 35885 ft 399 kts 289°
2026-05-07 23:27 45.22055 -93.84257 35876 ft 398 kts 289°
2026-05-07 23:28 45.23623 -93.91805 35883 ft 399 kts 289°
2026-05-07 23:28 45.25191 -93.99361 35890 ft 400 kts 289°
2026-05-07 23:29 45.26750 -94.06915 35889 ft 399 kts 289°
2026-05-07 23:29 45.28308 -94.14494 35893 ft 400 kts 289°
2026-05-07 23:30 45.29846 -94.22048 35899 ft 399 kts 289°
2026-05-07 23:30 45.31381 -94.29582 35897 ft 400 kts 289°
2026-05-07 23:31 45.32928 -94.37184 35897 ft 401 kts 289°
2026-05-07 23:31 45.34468 -94.44799 35903 ft 400 kts 289°
2026-05-07 23:32 45.36004 -94.52423 35897 ft 401 kts 289°
2026-05-07 23:32 45.37533 -94.60025 35901 ft 401 kts 289°
2026-05-07 23:33 45.39059 -94.67663 35874 ft 401 kts 289°
2026-05-07 23:33 45.40593 -94.75289 35878 ft 402 kts 289°
2026-05-07 23:34 45.42120 -94.82948 35879 ft 401 kts 288°
2026-05-07 23:34 45.43640 -94.90612 35882 ft 403 kts 288°
2026-05-07 23:35 45.45149 -94.98271 35884 ft 401 kts 288°
2026-05-07 23:35 45.46657 -95.05937 35857 ft 403 kts 288°
2026-05-07 23:36 45.48160 -95.13619 35882 ft 403 kts 288°
2026-05-07 23:36 45.49659 -95.21325 35880 ft 402 kts 288°
2026-05-07 23:37 45.51151 -95.29015 35874 ft 403 kts 288°
2026-05-07 23:37 45.52637 -95.36711 35873 ft 403 kts 288°
2026-05-07 23:38 45.54125 -95.44419 35873 ft 402 kts 288°
2026-05-07 23:38 45.55593 -95.52070 35876 ft 403 kts 288°
2026-05-07 23:39 45.57066 -95.59791 35878 ft 402 kts 288°
2026-05-07 23:39 45.58538 -95.67543 35875 ft 403 kts 288°
2026-05-07 23:40 45.60005 -95.75272 35859 ft 403 kts 288°
2026-05-07 23:40 45.61458 -95.82959 35856 ft 404 kts 288°
2026-05-07 23:41 45.62910 -95.90696 35839 ft 404 kts 288°
2026-05-07 23:41 45.64364 -95.98457 35847 ft 405 kts 288°
2026-05-07 23:42 45.65807 -96.06217 35841 ft 404 kts 288°
2026-05-07 23:42 45.67248 -96.13971 35854 ft 404 kts 288°
2026-05-07 23:43 45.68686 -96.21754 35857 ft 404 kts 288°
2026-05-07 23:43 45.70115 -96.29526 35842 ft 405 kts 287°
2026-05-07 23:44 45.71548 -96.37331 35869 ft 407 kts 287°
2026-05-07 23:44 45.72971 -96.45144 35869 ft 405 kts 287°
2026-05-07 23:45 45.74388 -96.52943 35870 ft 405 kts 287°
2026-05-07 23:45 45.75800 -96.60748 35874 ft 405 kts 287°
2026-05-07 23:46 45.77207 -96.68566 35874 ft 405 kts 287°
2026-05-07 23:46 45.78614 -96.76402 35868 ft 408 kts 287°
2026-05-07 23:47 45.80022 -96.84278 35874 ft 408 kts 287°
2026-05-07 23:47 45.81426 -96.92164 35874 ft 408 kts 287°
2026-05-07 23:48 45.82817 -97.00030 35870 ft 408 kts 287°
2026-05-07 23:48 45.84212 -97.07936 35867 ft 408 kts 287°
2026-05-07 23:49 45.85597 -97.15831 35855 ft 409 kts 286°
2026-05-07 23:49 45.86977 -97.23721 35870 ft 410 kts 286°
2026-05-07 23:50 45.88351 -97.31655 35871 ft 410 kts 286°
2026-05-07 23:50 45.89728 -97.39642 35871 ft 410 kts 286°
2026-05-07 23:51 45.91089 -97.47529 35867 ft 410 kts 286°
2026-05-07 23:51 45.92458 -97.55471 35862 ft 410 kts 286°
2026-05-07 23:52 45.93822 -97.63428 35847 ft 410 kts 286°
2026-05-07 23:52 45.95178 -97.71395 35848 ft 410 kts 286°
2026-05-07 23:53 45.96526 -97.79361 35849 ft 411 kts 285°
2026-05-07 23:53 45.97869 -97.87341 35854 ft 410 kts 286°
2026-05-07 23:54 45.99210 -97.95319 35845 ft 411 kts 285°
2026-05-07 23:54 46.00539 -98.03334 35857 ft 412 kts 285°
2026-05-07 23:55 46.01836 -98.11354 35864 ft 412 kts 285°
2026-05-07 23:55 46.03131 -98.19385 35869 ft 413 kts 285°
2026-05-07 23:56 46.04421 -98.27443 35870 ft 412 kts 285°
2026-05-07 23:56 46.05701 -98.35483 35846 ft 412 kts 285°
2026-05-07 23:57 46.06982 -98.43544 35871 ft 414 kts 285°
2026-05-07 23:57 46.08046 -98.50255 35872 ft 414 kts 285°
2026-05-07 23:58 46.09319 -98.58337 35872 ft 414 kts 284°
2026-05-07 23:58 46.10580 -98.66413 35870 ft 414 kts 284°
2026-05-07 23:59 46.11844 -98.74515 35870 ft 414 kts 284°
2026-05-07 23:59 46.13097 -98.82615 35861 ft 415 kts 284°
2026-05-08 00:00 46.14350 -98.90750 35868 ft 414 kts 284°
2026-05-08 00:00 46.15599 -98.98856 35867 ft 414 kts 284°
2026-05-08 00:01 46.16837 -99.06963 35867 ft 415 kts 284°
2026-05-08 00:01 46.18066 -99.15046 35868 ft 415 kts 284°
2026-05-08 00:02 46.19306 -99.23236 35857 ft 416 kts 284°
2026-05-08 00:02 46.20522 -99.31327 35861 ft 415 kts 284°
2026-05-08 00:03 46.21737 -99.39463 35867 ft 415 kts 284°
2026-05-08 00:03 46.22950 -99.47606 35868 ft 415 kts 284°
2026-05-08 00:04 46.24157 -99.55747 35871 ft 415 kts 284°
2026-05-08 00:04 46.25356 -99.63904 35857 ft 415 kts 283°
2026-05-08 00:05 46.26557 -99.72089 35865 ft 416 kts 283°
2026-05-08 00:05 46.27750 -99.80254 35865 ft 415 kts 283°
2026-05-08 00:06 46.28938 -99.88437 35866 ft 415 kts 283°
2026-05-08 00:06 46.30115 -99.96601 35864 ft 415 kts 283°
2026-05-08 00:07 46.31285 -100.04786 35864 ft 415 kts 283°
2026-05-08 00:07 46.32459 -100.13000 35860 ft 418 kts 283°
2026-05-08 00:08 46.33627 -100.21223 35864 ft 416 kts 283°
2026-05-08 00:08 46.34785 -100.29417 35865 ft 416 kts 283°
2026-05-08 00:09 46.35942 -100.37644 35863 ft 417 kts 283°
2026-05-08 00:09 46.37088 -100.45869 35867 ft 417 kts 283°
2026-05-08 00:10 46.38232 -100.54104 35859 ft 417 kts 283°
2026-05-08 00:10 46.39368 -100.62349 35863 ft 417 kts 283°
2026-05-08 00:11 46.40498 -100.70592 35870 ft 417 kts 283°
2026-05-08 00:11 46.41624 -100.78834 35870 ft 417 kts 283°
2026-05-08 00:12 46.42739 -100.87106 35871 ft 418 kts 283°
2026-05-08 00:12 46.43847 -100.95312 35862 ft 418 kts 283°
2026-05-08 00:13 46.44962 -101.03597 35875 ft 418 kts 283°
2026-05-08 00:13 46.46075 -101.11924 35875 ft 418 kts 283°
2026-05-08 00:14 46.47167 -101.20170 35876 ft 418 kts 283°
2026-05-08 00:14 46.48262 -101.28459 35877 ft 418 kts 283°
2026-05-08 00:15 46.49349 -101.36756 35862 ft 419 kts 283°
2026-05-08 00:15 46.50421 -101.45062 35874 ft 418 kts 283°
2026-05-08 00:16 46.51507 -101.53361 35875 ft 418 kts 283°
2026-05-08 00:16 46.52578 -101.61650 35876 ft 418 kts 282°
2026-05-08 00:17 46.53638 -101.69957 35874 ft 418 kts 282°
2026-05-08 00:17 46.54694 -101.78264 35868 ft 418 kts 282°
2026-05-08 00:18 46.55746 -101.86582 35867 ft 418 kts 282°
2026-05-08 00:18 46.56791 -101.94896 35872 ft 418 kts 282°
2026-05-08 00:19 46.57826 -102.03216 35863 ft 418 kts 282°
2026-05-08 00:19 46.58863 -102.11547 35859 ft 418 kts 282°
2026-05-08 00:20 46.59882 -102.19820 35854 ft 418 kts 282°
2026-05-08 00:20 46.60900 -102.28140 35856 ft 418 kts 282°
2026-05-08 00:21 46.61904 -102.36467 35857 ft 418 kts 282°
2026-05-08 00:21 46.62908 -102.44782 35851 ft 418 kts 282°
2026-05-08 00:22 46.63913 -102.53124 35847 ft 418 kts 282°
2026-05-08 00:22 46.64911 -102.61462 35842 ft 418 kts 282°
2026-05-08 00:23 46.65905 -102.69786 35829 ft 417 kts 282°
2026-05-08 00:23 46.66890 -102.78115 35835 ft 417 kts 282°
2026-05-08 00:24 46.67866 -102.86451 35834 ft 417 kts 282°
2026-05-08 00:24 46.68841 -102.94792 35836 ft 417 kts 282°
2026-05-08 00:25 46.69799 -103.03115 35837 ft 417 kts 282°
2026-05-08 00:25 46.70759 -103.11467 35828 ft 417 kts 282°
2026-05-08 00:26 46.71707 -103.19787 35848 ft 416 kts 282°
2026-05-08 00:26 46.72648 -103.28102 35859 ft 416 kts 282°
2026-05-08 00:27 46.73582 -103.36375 35855 ft 416 kts 282°
2026-05-08 00:27 46.74515 -103.44699 35855 ft 416 kts 282°
2026-05-08 00:28 46.75437 -103.53024 35835 ft 416 kts 282°
2026-05-08 00:28 46.76352 -103.61338 35857 ft 414 kts 282°
2026-05-08 00:29 46.77261 -103.69632 35881 ft 414 kts 282°
2026-05-08 00:29 46.78161 -103.77924 35861 ft 414 kts 282°
2026-05-08 00:30 46.79059 -103.86230 35874 ft 414 kts 282°
2026-05-08 00:30 46.79948 -103.94516 35863 ft 414 kts 282°
2026-05-08 00:31 46.80832 -104.02808 35866 ft 413 kts 282°
2026-05-08 00:31 46.81707 -104.11100 35870 ft 413 kts 282°
2026-05-08 00:32 46.82583 -104.19400 35877 ft 413 kts 282°
2026-05-08 00:32 46.83445 -104.27704 35876 ft 413 kts 282°
2026-05-08 00:33 46.84300 -104.35996 35875 ft 413 kts 282°
2026-05-08 00:33 46.85149 -104.44306 35855 ft 414 kts 281°
2026-05-08 00:34 46.85994 -104.52630 35865 ft 414 kts 281°
2026-05-08 00:34 46.86834 -104.60958 35877 ft 414 kts 281°
2026-05-08 00:35 46.87677 -104.69277 35863 ft 414 kts 282°
2026-05-08 00:35 46.88511 -104.77597 35862 ft 414 kts 281°
2026-05-08 00:36 46.89338 -104.85936 35839 ft 414 kts 281°
2026-05-08 00:36 46.90149 -104.94220 35859 ft 414 kts 281°
2026-05-08 00:37 46.90966 -105.02588 35863 ft 413 kts 281°
2026-05-08 00:38 46.92171 -105.15077 35865 ft 414 kts 281°
2026-05-08 00:38 46.92961 -105.23360 35866 ft 414 kts 281°
2026-05-08 00:39 46.93750 -105.31687 35838 ft 414 kts 281°
2026-05-08 00:39 46.94535 -105.40030 35862 ft 414 kts 281°
2026-05-08 00:40 46.95314 -105.48365 35869 ft 414 kts 281°
2026-05-08 00:40 46.96084 -105.56715 35871 ft 415 kts 281°
2026-05-08 00:41 46.96851 -105.65100 35870 ft 415 kts 281°
2026-05-08 00:41 46.97611 -105.73466 35872 ft 415 kts 281°
2026-05-08 00:42 46.98368 -105.81835 35863 ft 415 kts 281°
2026-05-08 00:42 46.99122 -105.90223 35861 ft 415 kts 280°
2026-05-08 00:43 46.99863 -105.98603 35871 ft 415 kts 280°
2026-05-08 00:43 47.00609 -106.07003 35868 ft 415 kts 280°
2026-05-08 00:44 47.01362 -106.15390 35873 ft 415 kts 280°
2026-05-08 00:44 47.02098 -106.23754 35867 ft 415 kts 280°
2026-05-08 00:45 47.02832 -106.32109 35871 ft 415 kts 280°
2026-05-08 00:45 47.03566 -106.40564 35866 ft 415 kts 280°
2026-05-08 00:46 47.04291 -106.48968 35867 ft 416 kts 280°
2026-05-08 00:46 47.04889 -106.55959 35868 ft 416 kts 280°
2026-05-08 00:47 47.05602 -106.64390 35855 ft 416 kts 280°
2026-05-08 00:47 47.06305 -106.72794 35859 ft 416 kts 280°
2026-05-08 00:48 47.07006 -106.81226 35866 ft 416 kts 280°
2026-05-08 00:48 47.07701 -106.89641 35871 ft 416 kts 280°
2026-05-08 00:49 47.08390 -106.98065 35873 ft 416 kts 280°
2026-05-08 00:49 47.09076 -107.06488 35872 ft 416 kts 280°
2026-05-08 00:50 47.09751 -107.14942 35867 ft 416 kts 279°
2026-05-08 00:50 47.10422 -107.23381 35877 ft 416 kts 279°
2026-05-08 00:51 47.11084 -107.31809 35878 ft 417 kts 279°
2026-05-08 00:51 47.11743 -107.40282 35883 ft 418 kts 279°
2026-05-08 00:52 47.12394 -107.48758 35880 ft 418 kts 279°
2026-05-08 00:52 47.13042 -107.57241 35861 ft 418 kts 279°
2026-05-08 00:53 47.13687 -107.65752 35876 ft 419 kts 279°
2026-05-08 00:53 47.14319 -107.74249 35876 ft 419 kts 279°
2026-05-08 00:54 47.14935 -107.82773 35878 ft 419 kts 279°
2026-05-08 00:54 47.15545 -107.91229 35880 ft 419 kts 279°
2026-05-08 00:55 47.16170 -107.99738 35878 ft 419 kts 279°
2026-05-08 00:55 47.16805 -108.08320 35870 ft 420 kts 279°
2026-05-08 00:56 47.17411 -108.16810 35875 ft 420 kts 279°
2026-05-08 00:56 47.18011 -108.25342 35877 ft 420 kts 279°
2026-05-08 00:57 47.18601 -108.33895 35882 ft 420 kts 279°
2026-05-08 00:57 47.19181 -108.42429 35877 ft 420 kts 279°
2026-05-08 00:58 47.19771 -108.50997 35871 ft 420 kts 280°
2026-05-08 00:58 47.20348 -108.59539 35880 ft 420 kts 279°
2026-05-08 00:59 47.20904 -108.68087 35889 ft 420 kts 279°
2026-05-08 00:59 47.21480 -108.76650 35890 ft 420 kts 280°
2026-05-08 01:00 47.22039 -108.85191 35900 ft 420 kts 280°
2026-05-08 01:00 47.22586 -108.93716 35877 ft 420 kts 280°
2026-05-08 01:01 47.23134 -109.02287 35912 ft 418 kts 280°
2026-05-08 01:01 47.23664 -109.10740 35913 ft 418 kts 280°
2026-05-08 01:02 47.24184 -109.19266 35914 ft 418 kts 280°
2026-05-08 01:02 47.24708 -109.27793 35921 ft 418 kts 280°
2026-05-08 01:03 47.25228 -109.36311 35918 ft 418 kts 280°
2026-05-08 01:03 47.25725 -109.44819 35918 ft 415 kts 281°
2026-05-08 01:04 47.26228 -109.53276 35935 ft 415 kts 281°
2026-05-08 01:04 47.26725 -109.61717 35936 ft 414 kts 280°
2026-05-08 01:05 47.27212 -109.70189 35935 ft 415 kts 280°
2026-05-08 01:05 47.27695 -109.78709 35933 ft 415 kts 280°
2026-05-08 01:06 47.28162 -109.87132 35912 ft 413 kts 281°
2026-05-08 01:06 47.28628 -109.95505 35933 ft 410 kts 281°
2026-05-08 01:07 47.29083 -110.03880 35940 ft 411 kts 281°
2026-05-08 01:07 47.29534 -110.12264 35925 ft 411 kts 281°
2026-05-08 01:08 47.29976 -110.20660 35926 ft 411 kts 281°
2026-05-08 01:08 47.30419 -110.29026 35928 ft 410 kts 281°
2026-05-08 01:09 47.30848 -110.37349 35909 ft 405 kts 282°
2026-05-08 01:09 47.31264 -110.45628 35916 ft 405 kts 282°
2026-05-08 01:10 47.31685 -110.53882 35915 ft 405 kts 282°
2026-05-08 01:10 47.32096 -110.62171 35914 ft 405 kts 282°
2026-05-08 01:11 47.32493 -110.70461 35906 ft 405 kts 282°
2026-05-08 01:11 47.32892 -110.78729 35906 ft 405 kts 282°
2026-05-08 01:12 47.33284 -110.87008 35897 ft 405 kts 282°
2026-05-08 01:12 47.33665 -110.95316 35911 ft 406 kts 282°
2026-05-08 01:13 47.34040 -111.03595 35923 ft 405 kts 282°
2026-05-08 01:13 47.34418 -111.11897 35934 ft 405 kts 282°
2026-05-08 01:14 47.34786 -111.20176 35933 ft 405 kts 282°
2026-05-08 01:14 47.35144 -111.28410 35946 ft 401 kts 283°
2026-05-08 01:15 47.35482 -111.36610 35957 ft 401 kts 283°
2026-05-08 01:15 47.35824 -111.44760 35959 ft 401 kts 283°
2026-05-08 01:16 47.36166 -111.53018 35943 ft 401 kts 283°
2026-05-08 01:16 47.36496 -111.61178 35891 ft 401 kts 283°
2026-05-08 01:17 47.36825 -111.69372 35836 ft 401 kts 283°
2026-05-08 01:17 47.37143 -111.77550 35897 ft 398 kts 282°
2026-05-08 01:18 47.37455 -111.85688 35911 ft 398 kts 282°
2026-05-08 01:18 47.37764 -111.93841 35916 ft 398 kts 282°
2026-05-08 01:19 47.38067 -112.01994 35941 ft 398 kts 282°
2026-05-08 01:19 47.38366 -112.10161 35941 ft 399 kts 282°
2026-05-08 01:20 47.38655 -112.18330 35924 ft 397 kts 282°
2026-05-08 01:20 47.38939 -112.26437 35944 ft 396 kts 282°
2026-05-08 01:21 47.39216 -112.34578 35959 ft 396 kts 282°
2026-05-08 01:21 47.39491 -112.42688 35954 ft 396 kts 282°
2026-05-08 01:22 47.39762 -112.50799 35961 ft 396 kts 282°
2026-05-08 01:22 47.40022 -112.58931 35963 ft 396 kts 282°
2026-05-08 01:23 47.40273 -112.67024 35944 ft 393 kts 282°
2026-05-08 01:23 47.40520 -112.75058 35974 ft 393 kts 281°
2026-05-08 01:24 47.40766 -112.83140 35970 ft 393 kts 281°
2026-05-08 01:24 47.41001 -112.91195 35966 ft 393 kts 281°
2026-05-08 01:25 47.41231 -112.99256 35970 ft 392 kts 281°
2026-05-08 01:25 47.41458 -113.07301 35925 ft 392 kts 281°
2026-05-08 01:26 47.41677 -113.15327 35963 ft 391 kts 281°
2026-05-08 01:26 47.41886 -113.23343 35967 ft 390 kts 281°
2026-05-08 01:27 47.42097 -113.31363 35982 ft 391 kts 281°
2026-05-08 01:27 47.42298 -113.39309 35971 ft 390 kts 281°
2026-05-08 01:28 47.42492 -113.47376 35969 ft 392 kts 281°
2026-05-08 01:28 47.42684 -113.55381 35917 ft 392 kts 280°
2026-05-08 01:29 47.42869 -113.63434 35933 ft 393 kts 280°
2026-05-08 01:29 47.43047 -113.71493 35955 ft 393 kts 280°
2026-05-08 01:30 47.43222 -113.79559 35960 ft 393 kts 280°
2026-05-08 01:30 47.43392 -113.87626 35949 ft 393 kts 280°
2026-05-08 01:31 47.43558 -113.95694 35937 ft 393 kts 280°
2026-05-08 01:31 47.43716 -114.03800 35907 ft 396 kts 279°
2026-05-08 01:32 47.43863 -114.11937 35930 ft 396 kts 279°
2026-05-08 01:32 47.44010 -114.20073 35929 ft 396 kts 279°
2026-05-08 01:33 47.44157 -114.28200 35919 ft 396 kts 279°
2026-05-08 01:33 47.44267 -114.35033 35930 ft 397 kts 279°
2026-05-08 01:34 47.44400 -114.43176 35920 ft 397 kts 279°
2026-05-08 01:34 47.44539 -114.51344 35903 ft 399 kts 279°
2026-05-08 01:35 47.44666 -114.59475 35924 ft 398 kts 279°
2026-05-08 01:35 47.44784 -114.67716 35924 ft 399 kts 279°
2026-05-08 01:36 47.44894 -114.75836 35931 ft 399 kts 278°
2026-05-08 01:36 47.44998 -114.84015 35928 ft 398 kts 278°
2026-05-08 01:37 47.45099 -114.92210 35881 ft 399 kts 278°
2026-05-08 01:37 47.45194 -115.00480 35925 ft 401 kts 278°
2026-05-08 01:38 47.45281 -115.08650 35934 ft 401 kts 278°
2026-05-08 01:38 47.45364 -115.16943 35935 ft 401 kts 278°
2026-05-08 01:39 47.45436 -115.25180 35933 ft 401 kts 277°
2026-05-08 01:39 47.45455 -115.33372 35925 ft 403 kts 277°
2026-05-08 01:40 47.45507 -115.41640 35938 ft 401 kts 278°
2026-05-08 01:40 47.45585 -115.49882 35928 ft 403 kts 277°
2026-05-08 01:41 47.45627 -115.58146 35950 ft 401 kts 277°
2026-05-08 01:41 47.45787 -115.66372 35935 ft 398 kts 281°
2026-05-08 01:42 47.46283 -115.74508 35942 ft 398 kts 282°
2026-05-08 01:42 47.46797 -115.82638 35928 ft 397 kts 282°
2026-05-08 01:43 47.47303 -115.90785 35944 ft 400 kts 281°
2026-05-08 01:43 47.47799 -115.98987 35951 ft 401 kts 281°
2026-05-08 01:44 47.48290 -116.07191 35975 ft 401 kts 281°
2026-05-08 01:44 47.48779 -116.15443 35960 ft 402 kts 281°
2026-05-08 01:45 47.49257 -116.23640 35975 ft 400 kts 281°
2026-05-08 01:45 47.49731 -116.31823 35983 ft 399 kts 281°
2026-05-08 01:46 47.50201 -116.40031 35988 ft 401 kts 280°
2026-05-08 01:46 47.50656 -116.48266 36009 ft 402 kts 280°
2026-05-08 01:47 47.51101 -116.56445 36008 ft 402 kts 280°
2026-05-08 01:47 47.51557 -116.64684 36029 ft 402 kts 280°
2026-05-08 01:48 47.52231 -116.77017 36025 ft 402 kts 280°
2026-05-08 01:48 47.52666 -116.85253 36008 ft 402 kts 279°
2026-05-08 01:49 47.53098 -116.93533 36029 ft 403 kts 279°
2026-05-08 01:49 47.53518 -117.01790 36023 ft 403 kts 279°
2026-05-08 01:50 47.53928 -117.10075 36012 ft 403 kts 279°
2026-05-08 01:50 47.54342 -117.18326 36018 ft 403 kts 279°
2026-05-08 01:51 47.54761 -117.26615 35997 ft 403 kts 279°
2026-05-08 01:51 47.55170 -117.34877 35972 ft 403 kts 278°
2026-05-08 01:52 47.55570 -117.43162 36007 ft 404 kts 278°
2026-05-08 01:52 47.55961 -117.51473 36007 ft 404 kts 278°
2026-05-08 01:53 47.56347 -117.59781 36011 ft 404 kts 278°
2026-05-08 01:53 47.56987 -117.68019 36010 ft 402 kts 282°
2026-05-08 01:54 47.57783 -117.76209 36009 ft 402 kts 282°
2026-05-08 01:54 47.58572 -117.84409 35982 ft 402 kts 282°
2026-05-08 01:55 47.59352 -117.92645 35996 ft 403 kts 282°
2026-05-08 01:55 47.60125 -118.00849 35991 ft 403 kts 282°
2026-05-08 01:56 47.60897 -118.09083 35979 ft 403 kts 282°
2026-05-08 01:56 47.61644 -118.17252 35961 ft 393 kts 282°
2026-05-08 01:57 47.62383 -118.25251 35968 ft 391 kts 282°
2026-05-08 01:57 47.63115 -118.33251 35969 ft 391 kts 282°
2026-05-08 01:58 47.63831 -118.41261 35952 ft 393 kts 281°
2026-05-08 01:58 47.64547 -118.49290 35966 ft 393 kts 281°
2026-05-08 01:59 47.65261 -118.57318 35967 ft 393 kts 281°
2026-05-08 01:59 47.65971 -118.65351 35960 ft 393 kts 281°
2026-05-08 02:00 47.66677 -118.73399 35961 ft 393 kts 281°
2026-05-08 02:00 47.67370 -118.81441 35961 ft 393 kts 281°
2026-05-08 02:01 47.68068 -118.89485 35950 ft 393 kts 281°
2026-05-08 02:01 47.68769 -118.97548 35940 ft 395 kts 280°
2026-05-08 02:02 47.69446 -119.05587 35949 ft 395 kts 280°
2026-05-08 02:02 47.70133 -119.13732 35946 ft 395 kts 280°
2026-05-08 02:03 47.70801 -119.21769 35935 ft 395 kts 280°
2026-05-08 02:03 47.71471 -119.29876 35939 ft 395 kts 280°
2026-05-08 02:04 47.72133 -119.37962 35937 ft 395 kts 279°
2026-05-08 02:04 47.72789 -119.46067 35912 ft 396 kts 279°
2026-05-08 02:05 47.73440 -119.54188 35915 ft 396 kts 279°
2026-05-08 02:05 47.74084 -119.62316 35782 ft 396 kts 279°
2026-05-08 02:06 47.74407 -119.66373 35407 ft 396 kts 279°
2026-05-08 02:06 47.74727 -119.70419 34968 ft 396 kts 279°
2026-05-08 02:06 47.75047 -119.74510 34504 ft 398 kts 279°
2026-05-08 02:06 47.75363 -119.78590 34069 ft 399 kts 279°
2026-05-08 02:07 47.75681 -119.82707 33585 ft 401 kts 279°
2026-05-08 02:07 47.76001 -119.86839 33080 ft 404 kts 279°
2026-05-08 02:07 47.76322 -119.90972 32588 ft 406 kts 279°
2026-05-08 02:07 47.76642 -119.95164 32104 ft 409 kts 278°
2026-05-08 02:08 47.76962 -119.99381 31609 ft 411 kts 278°
2026-05-08 02:08 47.77283 -120.03617 31153 ft 413 kts 278°
2026-05-08 02:08 47.77604 -120.07880 30687 ft 415 kts 278°
2026-05-08 02:08 47.77925 -120.12149 30235 ft 418 kts 278°
2026-05-08 02:09 47.78246 -120.16471 29761 ft 429 kts 278°
2026-05-08 02:09 47.78576 -120.20920 29261 ft 438 kts 277°
2026-05-08 02:09 47.78909 -120.25441 28750 ft 438 kts 277°
2026-05-08 02:09 47.79236 -120.29931 28264 ft 435 kts 277°
2026-05-08 02:10 47.79559 -120.34373 27766 ft 433 kts 277°
2026-05-08 02:10 47.79883 -120.38833 27292 ft 432 kts 277°
2026-05-08 02:10 47.80202 -120.43256 26792 ft 424 kts 276°
2026-05-08 02:10 47.80512 -120.47571 26314 ft 414 kts 276°
2026-05-08 02:11 47.80813 -120.51779 25843 ft 405 kts 276°
2026-05-08 02:11 47.81108 -120.55909 25373 ft 396 kts 276°
2026-05-08 02:11 47.81394 -120.59940 24953 ft 389 kts 276°
2026-05-08 02:11 47.81672 -120.63885 24509 ft 382 kts 275°
2026-05-08 02:12 47.81943 -120.67790 24068 ft 380 kts 275°
2026-05-08 02:12 47.82214 -120.71711 23638 ft 379 kts 275°
2026-05-08 02:12 47.82483 -120.75600 23168 ft 378 kts 275°
2026-05-08 02:12 47.82752 -120.79494 22650 ft 376 kts 275°
2026-05-08 02:13 47.83017 -120.83364 22160 ft 374 kts 275°
2026-05-08 02:13 47.83278 -120.87188 21675 ft 372 kts 275°
2026-05-08 02:13 47.83540 -120.91012 21194 ft 370 kts 275°
2026-05-08 02:13 47.83795 -120.94806 20731 ft 368 kts 275°
2026-05-08 02:14 47.84048 -120.98606 20264 ft 368 kts 275°
2026-05-08 02:14 47.84300 -121.02365 19839 ft 366 kts 275°
2026-05-08 02:14 47.84551 -121.06140 19394 ft 364 kts 274°
2026-05-08 02:14 47.84796 -121.09844 18955 ft 362 kts 274°
2026-05-08 02:15 47.85041 -121.13595 18502 ft 356 kts 274°
2026-05-08 02:15 47.85277 -121.17233 18029 ft 350 kts 274°
2026-05-08 02:15 47.85511 -121.20813 17536 ft 345 kts 274°
2026-05-08 02:15 47.85739 -121.24309 17339 ft 331 kts 274°
2026-05-08 02:16 47.85951 -121.27580 17279 ft 318 kts 274°
2026-05-08 02:16 47.86165 -121.30886 17197 ft 318 kts 274°
2026-05-08 02:16 47.86305 -121.33056 16974 ft 316 kts 274°
2026-05-08 02:16 47.86583 -121.37390 16414 ft 313 kts 274°
2026-05-08 02:17 47.86719 -121.39530 16121 ft 313 kts 275°
2026-05-08 02:17 47.86990 -121.43793 15528 ft 310 kts 274°
2026-05-08 02:17 47.87125 -121.45945 15265 ft 308 kts 274°
2026-05-08 02:17 47.87324 -121.49122 14826 ft 306 kts 274°
2026-05-08 02:18 47.87583 -121.53287 14240 ft 306 kts 275°
2026-05-08 02:18 47.87713 -121.55397 13957 ft 305 kts 275°
2026-05-08 02:18 47.87910 -121.58544 13489 ft 302 kts 274°
2026-05-08 02:18 47.88101 -121.61648 13002 ft 299 kts 274°
2026-05-08 02:19 47.88289 -121.64726 12516 ft 298 kts 274°
2026-05-08 02:19 47.88419 -121.67759 12107 ft 295 kts 267°
2026-05-08 02:19 47.87974 -121.70735 11955 ft 293 kts 244°
2026-05-08 02:19 47.86774 -121.73163 11946 ft 293 kts 224°
2026-05-08 02:20 47.85255 -121.75207 11775 ft 293 kts 221°
2026-05-08 02:20 47.83723 -121.77188 11532 ft 292 kts 221°
2026-05-08 02:20 47.82202 -121.79187 11253 ft 289 kts 221°
2026-05-08 02:20 47.80702 -121.81185 10965 ft 290 kts 221°
2026-05-08 02:21 47.79285 -121.83296 10655 ft 288 kts 234°
2026-05-08 02:21 47.78468 -121.85990 10339 ft 290 kts 256°
2026-05-08 02:21 47.78204 -121.88963 10037 ft 290 kts 264°
2026-05-08 02:21 47.78062 -121.91934 9686 ft 288 kts 265°
2026-05-08 02:22 47.77937 -121.94905 9322 ft 285 kts 265°
2026-05-08 02:22 47.77801 -121.97834 8961 ft 282 kts 265°
2026-05-08 02:22 47.77664 -122.00723 8585 ft 276 kts 265°
2026-05-08 02:22 47.77531 -122.03517 8201 ft 266 kts 265°
2026-05-08 02:23 47.77404 -122.06191 7818 ft 254 kts 265°
2026-05-08 02:23 47.77284 -122.08749 7450 ft 241 kts 265°
2026-05-08 02:23 47.77172 -122.11151 7125 ft 228 kts 265°
2026-05-08 02:23 47.77065 -122.13501 6834 ft 227 kts 265°
2026-05-08 02:24 47.76960 -122.15792 6572 ft 225 kts 265°
2026-05-08 02:24 47.76851 -122.18128 6274 ft 224 kts 265°
2026-05-08 02:24 47.76740 -122.20453 5964 ft 223 kts 265°
2026-05-08 02:24 47.76626 -122.22743 5663 ft 222 kts 265°
2026-05-08 02:25 47.76243 -122.24931 5343 ft 221 kts 239°
2026-05-08 02:25 47.75170 -122.26535 5046 ft 222 kts 211°
2026-05-08 02:25 47.73808 -122.27550 4948 ft 223 kts 205°
2026-05-08 02:25 47.72400 -122.28497 4937 ft 223 kts 205°
2026-05-08 02:26 47.70975 -122.29446 4940 ft 214 kts 205°
2026-05-08 02:26 47.69684 -122.30303 4930 ft 192 kts 205°
2026-05-08 02:26 47.68544 -122.31056 4938 ft 181 kts 205°
2026-05-08 02:26 47.67259 -122.31582 4937 ft 192 kts 188°
2026-05-08 02:27 47.65947 -122.31644 4634 ft 191 kts 179°
2026-05-08 02:27 47.64625 -122.31637 4289 ft 190 kts 181°
2026-05-08 02:27 47.63287 -122.31645 3951 ft 189 kts 181°
2026-05-08 02:27 47.61995 -122.31655 3636 ft 187 kts 181°
2026-05-08 02:28 47.60693 -122.31666 3348 ft 187 kts 181°
2026-05-08 02:28 47.59399 -122.31677 3065 ft 186 kts 181°
2026-05-08 02:28 47.58106 -122.31688 2793 ft 185 kts 181°
2026-05-08 02:28 47.56831 -122.31699 2532 ft 185 kts 181°
2026-05-08 02:29 47.55543 -122.31709 2271 ft 184 kts 181°
2026-05-08 02:29 47.54272 -122.31720 2023 ft 183 kts 181°
2026-05-08 02:29 47.52989 -122.31731 1769 ft 183 kts 180°
2026-05-08 02:29 47.51752 -122.31741 1531 ft 171 kts 180°
2026-05-08 02:30 47.50643 -122.31749 1324 ft 146 kts 180°
2026-05-08 02:30 47.49646 -122.31757 1086 ft 143 kts 180°
2026-05-08 02:30 47.48651 -122.31761 892 ft 143 kts 181°
2026-05-08 02:30 47.47662 -122.31765 721 ft 142 kts 181°
2026-05-08 02:31 47.46674 -122.31775 535 ft 142 kts 182°
2026-05-08 02:31 47.45701 -122.31786 413 ft 132 kts 181°
2026-05-08 02:31 47.44987 -122.31797 397 ft 61 kts 181°
2026-05-08 02:31 47.44700 -122.31783 390 ft 35 kts 171°
2026-05-08 02:32 47.44511 -122.31667 382 ft 22 kts 161°
2026-05-08 02:32 47.44374 -122.31562 381 ft 22 kts 152°
2026-05-08 02:32 47.44291 -122.31484 382 ft 10 kts 140°
2026-05-08 02:32 47.44270 -122.31446 383 ft 6 kts 123°
2026-05-08 02:33 47.44239 -122.31390 384 ft 9 kts 144°
2026-05-08 02:33 47.44176 -122.31363 383 ft 10 kts 176°
2026-05-08 02:33 47.44099 -122.31361 381 ft 12 kts 180°
2026-05-08 02:33 47.44014 -122.31362 377 ft 13 kts 181°
2026-05-08 02:34 47.43919 -122.31365 375 ft 14 kts 181°
2026-05-08 02:34 47.43823 -122.31324 375 ft 16 kts 123°
2026-05-08 02:34 47.43810 -122.31152 377 ft 18 kts 88°
2026-05-08 02:34 47.43808 -122.30956 379 ft 20 kts 94°
2026-05-08 02:35 47.43807 -122.30745 381 ft 15 kts 90°
2026-05-08 02:35 47.43869 -122.30635 385 ft 18 kts 357°
2026-05-08 02:35 47.43990 -122.30596 389 ft 21 kts 81°
2026-05-08 02:35 47.43992 -122.30401 391 ft 16 kts 86°
2026-05-08 02:36 47.44026 -122.30259 393 ft 14 kts 40°
2026-05-08 02:36 47.44107 -122.30240 393 ft 10 kts 358°
2026-05-08 02:36 47.44161 -122.30250 393 ft 6 kts 356°
2026-05-08 02:36 47.44203 -122.30239 395 ft 2 kts 32°
2026-05-08 02:37 47.44206 -122.30236 396 ft 0 kts 34°
2026-05-08 02:37 47.44209 -122.30233 396 ft 2 kts 36°
2026-05-08 02:37 47.44216 -122.30225 397 ft 0 kts 39°
2026-05-08 02:38 47.44218 -122.30223 397 ft 0 kts 40°